Regional Weather Roundup
Issued by NWS Boston, MA

Home | Current Version | Previous Version | Text Only | Print | Product List | Glossary On
Versions: 1 2 3 4 5 6 7 8 9 10 11 12 13 14 15 16 17 18 19 20 21 22 23 24 25 26 27 28 29 30 31 32 33 34 35 36 37 38 39 40 41 42 43 44 45 46 47 48 49
000
ASUS41 KBOX 100210
RWRBOX

REGIONAL WEATHER ROUNDUP
NATIONAL WEATHER SERVICE TAUNTON MA
900 PM EST TUE FEB 09 2016

NOTE:  "FAIR" INDICATES FEW OR NO CLOUDS BELOW 12,000 FEET WITH NO
SIGNIFICANT WEATHER AND/OR OBSTRUCTIONS TO VISIBILITY.  THE FOLLOWING
OBSERVATION LOCATIONS DO NOT REPORT PRESENT WEATHER...PROVINCETOWN...
SMITHFIELD...BLOCK ISLAND...KEENE...AND OXFORD.

MAZALL-100300-
EASTERN MASSACHUSETTS

CITY           SKY/WX    TMP DP  RH WIND       PRES   REMARKS
BOSTON         PTCLDY    26  17  68 N3        29.63R
BEVERLY        PTCLDY    24  16  71 CALM      29.61F
LAWRENCE       CLEAR     21  15  78 CALM      29.63S
BEDFORD        CLEAR     17  14  88 CALM      29.61S
BLUE HILL        N/A     24  16  71 CALM      29.58R
NORWOOD        PTCLDY    21  17  84 CALM      29.63R
MARSHFIELD       N/A    N/A N/A N/A MISG        N/A
PLYMOUTH       CLOUDY    27  21  78 CALM      29.63R
TAUNTON        CLOUDY    27  22  81 CALM      29.63R
NEW BEDFORD    CLOUDY    27  23  85 CALM      29.63R
$$

MAZALL-100300-
CAPE COD AND THE ISLANDS

CITY           SKY/WX    TMP DP  RH WIND       PRES   REMARKS
FALMOUTH       CLOUDY    27  23  86 W6        29.63R WCI  20
HYANNIS        CLOUDY    31  24  75 NW6       29.60R WCI  25
CHATHAM        CLOUDY    30  24  78 CALM      29.61R
PROVINCETOWN   CLOUDY    30  23  75 NW9       29.62R WCI  22
NANTUCKET      CLOUDY    33  26  75 N6        29.60R WCI  28
MARTHAS VNYRD  MOCLDY    26  23  88 W5        29.63R WCI  20
$$

MAZALL-100300-
CENTRAL AND WESTERN MASSACHUSETTS

CITY           SKY/WX    TMP DP  RH WIND       PRES   REMARKS
WORCESTER      CLOUDY    21  15  78 SW5       29.57R WCI  15
FITCHBURG      CLEAR     18  14  84 CALM      29.61R
ORANGE         MOCLDY    16  14  92 CALM      29.59S
SPRINGFIELD    CLEAR     17  15  90 NE2       29.60S
WESTFIELD      PTCLDY    19  16  88 CALM      29.61S
NORTH ADAMS    CLOUDY    28  22  78 CALM      29.56S
PITTSFIELD     CLOUDY    25  20  81 SE3       29.53R
$$

RIZALL-100300-
RHODE ISLAND

CITY           SKY/WX    TMP DP  RH WIND       PRES   REMARKS
PROVIDENCE     CLOUDY    27  20  75 CALM      29.64R
NEWPORT        CLOUDY    26  21  81 CALM      29.62S
BLOCK ISLAND   CLOUDY    28  23  80 N3        29.61S
SMITHFIELD     PTCLDY    19  16  86 CALM      29.60R
WESTERLY       PTCLDY    24  20  84 CALM      29.63F
$$

CTZALL-100300-
CONNECTICUT

CITY           SKY/WX    TMP DP  RH WIND       PRES   REMARKS
BRADLEY INTL   CLOUDY    25  18  74 CALM      29.61S
HARTFORD       CLOUDY    25  20  81 CALM      29.63S
BRIDGEPORT     CLOUDY    32  25  75 CALM      29.63S
DANBURY        LGT SNOW  29  21  72 S6        29.61S WCI  23
GROTON         CLOUDY    26  24  92 CALM      29.63S
NEW HAVEN      CLOUDY    29  22  75 CALM      29.63S
CHESTER        CLOUDY    28  23  80 CALM      29.62S
MERIDEN        CLOUDY    27  21  78 CALM      29.63R
WILLIMANTIC    PTCLDY    22  17  81 CALM      29.62S
$$

MEZ002-015-021-024-NHZ003-005-008-011-012-014-VTZ005-008-100300-
NORTHERN NEW ENGLAND

CITY           SKY/WX    TMP DP  RH WIND       PRES   REMARKS
PORTLAND ME    CLEAR     18  13  80 NW5       29.62F WCI  11
BANGOR ME      LGT SNOW  20  17  88 NW8       29.59F FOG     WCI  10
CONCORD NH     CLEAR     13   9  84 CALM      29.60S
MANCHESTER NH  MOCLDY    20  15  81 CALM      29.60R
NASHUA NH      CLEAR     16  12  86 CALM      29.62S
PORTSMOUTH NH  PTCLDY    22  13  69 NW2       29.61R
JAFFREY NH     PTCLDY    11   9  92 CALM      29.55S
KEENE NH       PTCLDY    19  14  79 CALM      29.58S
BURLINGTON VT  FLURRIES  25  20  81 CALM      29.57S
MT. WASHINGTON DRFTSNOW   7   7 100 W30         N/A  VSB 1/16WCI -17
$$

NYZ052-076-100300-
EASTERN NEW YORK

CITY           SKY/WX    TMP DP  RH WIND       PRES   REMARKS
ALBANY         LGT SNOW  28  24  85 CALM      29.59S FOG
NEW YORK CITY  FLURRIES  34  24  67 SE7       29.62S WCI  28
$$

ANZALL-100300-
MARINE OBSERVATIONS

STATION/POSITION TIME  TEMP    WIND        PRES    VSBY  WAVE
                       AIR SEA DIR/SP/G                  HT/PER
                 (UTC) (F)     (DEG/KT/KT) (MB)    (MI)  (FT/S)
BOSTON BUOY      0150   30 41  310/  6/ 10 1003.1R         7/14
BUZZARDS BAY     0100          360/  8/  9 1003.7R
NANTUCKET SOUND  0150   34 41  340/ 10/ 14 1002.3R         2/ 3
MASS BAY-STELLWA 0104   28 42  320/  4/  6   N/A    1 1/4  7/13
ISLE OF SHOALS   0100   28     360/  5/  6 1002.2F
S OF BLOCK IS    NOT AVBL
$$

......................KEY.........................
  SKY/WX - SKY CONDITION/PRESENT WEATHER
  TMP    - TEMPERATURE IN FAHRENHEIT
  DWPT   - DEWPOINT IN FAHRENHEIT
  RH     - RELATIVE HUMIDITY IN PERCENT
  WIND   - DIRECTION AND SPEED IN MPH
  PRES   - MEAN SEA LEVEL PRESSURE IN INCHES OF HG
  WCI    - WIND CHILL INDEX
  VSB    - VISIBILITY IN MILES
  HX     - HEAT INDEX
  TC     - TEMPERATURE IN CELSIUS
  VRB    - VARIABLE WIND DIRECTION
  N/A    - NOT AVAILABLE




USA.gov is the U.S. government's official web portal to all federal, state and local government web resources and services.